STARLINK-1841 (46729 NORAD) Tracking and Keplerian Element Data

This shows tracking and keplerian element data for the satellite.

Feedback or suggestion? Click here.




ElementValue
Catalog46729
NameSTARLINK-1841
Epoch Orbit656
Epoch Day331.16668981
Epoch Year2020
RAAN279.0777
Inclination53.0549
Eccentricity0.0008678
Argument of Perigee294.1188
Mean Anonmoly196.1227
Mean Motion15.62841087
Decay Rate-0.00066637
L11 46729U 20073BM 20331.16668981 -.00066637 00000-0 -72379-3 0 9995
L22 46729 53.0549 279.0777 0008678 294.1188 196.1227 15.62841087 6564

Live tracking and technical data element details for STARLINK-1841 (NORAD 46729). STARLINK-1841 can be tracked NOW for your location showing map with azimuth and elevation plus other details from your city location.

Track the satellite on the map from your city or location and see movement details for azimuth, elevation, latitude, longitude, range, height, and movement on the map or in text.







IsCatalogInMostPopularTable: catalog: 46729, numindb: 9
Update: records affected: 1



GetName: 46729 STARLINK-1841

Hit Count: updated at: Thu, 26 Nov 2020 17:53:37 GMT